Regional Weather Roundup
Issued by NWS Green Bay, WI

Home | Current Version | Previous Version | Text Only | Print | Product List | Glossary On
Versions: 1 2 3 4 5 6 7 8 9 10 11 12 13 14 15 16 17 18 19 20 21 22 23 24 25 26 27 28 29 30 31 32 33 34 35 36 37 38 39 40 41 42 43 44 45 46 47 48 49 50
000
ASUS43 KGRB 061311
RWRGRB

NORTH-CENTRAL AND NORTHEAST WISCONSIN REGIONAL WEATHER ROUNDUP
NATIONAL WEATHER SERVICE GREEN BAY WI
700 AM CST SAT FEB 06 2016

WIZ005-009-010>012-018-019-061400-
NORTH CENTRAL WISCONSIN

CITY           SKY/WX    TMP DP  RH WIND       PRES   REMARKS
IRONWOOD       CLOUDY    19  18  93 SW7       30.02S
MANITOWISH WTR CLOUDY    20  19  97 SW6       30.03F
ARBOR VITAE    CLOUDY    22  19  91 W6        30.04F
EAGLE RIVER    CLOUDY    21  19  93 W7        30.04S
LAND O LAKES   CLOUDY    21  19  91 W3        30.03S
RHINELANDER    CLOUDY    21  18  88 W9        30.06S
PHILLIPS       CLOUDY    21  20  96 SW6       30.06S
ANTIGO         CLOUDY    21  20  97 W10       30.08S FOG     WCI  10
TOMAHAWK       CLOUDY    21  19  93 W6        30.08S FOG
MERRILL        CLOUDY    23  21  93 W9        30.10S
$$

WIZ013-073-061400-
NORTHEAST WISCONSIN

CITY           SKY/WX    TMP DP  RH WIND       PRES   REMARKS
IRON MOUNTAIN  CLOUDY    23  16  74 VRB6      30.05S
MARINETTE      CLOUDY    25  19  80 SW5       30.12S
OCONTO         CLOUDY    25  22  89 W7        30.15R
$$

WIZ017-030-035>037-045-061400-
CENTRAL WISCONSIN

CITY           SKY/WX    TMP DP  RH WIND       PRES   REMARKS
MEDFORD        CLOUDY    22  21  97 W8G17     30.08S FOG
WAUSAU         CLOUDY    24  21  88 W9        30.10S
MOSINEE        CLOUDY    23  23 100 SW8       30.12F FOG
MARSHFIELD     CLOUDY    24  21  88 W8        30.11S FOG
WISC RAPIDS    CLOUDY    25  21  85 W7        30.16S
STEVENS POINT  CLOUDY    23  20  91 W7        30.14S
WAUPACA        CLOUDY    28  23  83 W10       30.16S
SHAWANO        CLOUDY    27  22  83 W8        30.14S
CLINTONVILLE   CLOUDY    27  21  80 W12       30.15S
WAUTOMA        CLOUDY    26  23  88 W7        30.18S
$$

WIZ038-039-048-051-061400-
FOX VALLEY

CITY           SKY/WX    TMP DP  RH WIND       PRES   REMARKS
NWS GREEN BAY  CLOUDY    26  20  77 SW9       30.16S
APPLETON       CLOUDY    27  19  74 SW10      30.14S
OSHKOSH        CLOUDY    27  19  72 SW6       30.17S
FOND DU LAC    CLOUDY    28  19  69 SW9       30.18S
$$

WIZ022-050-052-061400-
EAST CENTRAL WISCONSIN

CITY           SKY/WX    TMP DP  RH WIND       PRES   REMARKS
EPHRAIM        CLOUDY    24  21  85 W8G17     30.11S
STURGEON BAY   CLOUDY    25  18  74 W12       30.16S
MANITOWOC      FLURRIES  28  21  75 W15       30.17S
SHEBOYGAN      CLOUDY    28  19  69 W13       30.18R
$$

LMZ563-521-522-541>543-061400-
LAKESHORE

STATION/POSITION TIME  TEMP    WIND        PRES    VSBY  WAVE
                       AIR SEA DIR/SP/G                  HT/PER
                 (UTC) (F)     (DEG/KT/KT) (MB)    (MI)  (FT/S)
SHEBOYGAN LKSHOR 1300   29     240/ 11/ 12 1023.2S
KEWAUNEE LKSHORE 1200   27     260/ 12/ 18 1020.2R
ALGOMA MARINA    1211          270/ 12/ 19   N/A
CHAMBERS ISLAND  1200   26     220/  6/ 13 1020.0F
MENOMINEE LKSHOR 1200   25     240/ 12     1019.2R
$$



USA.gov is the U.S. government's official web portal to all federal, state and local government web resources and services.